This is the latest recevied weather packets stored in our database for station/object CE4JVU-10. If no packets are shown the sender has not sent any weather packets the latest 10 day(s).
| Time | Temp. | Humidity | Pressure | Rain* | Wind** | Luminosity | Snow |
|---|---|---|---|---|---|---|---|
| 1788080939 | 17.22° C | 55% | 979.2 hPa | - | - | - | - |
| 1788080039 | 17.22° C | 55% | 979.1 hPa | - | - | - | - |
| 1788079139 | 17.22° C | 55% | 979 hPa | - | - | - | - |
| 1788078238 | 17.22° C | 55% | 978.9 hPa | - | - | - | - |
| 1788075538 | 18.33° C | 52% | 979 hPa | - | - | - | - |
| 1788074638 | 18.33° C | 51% | 979.2 hPa | - | - | - | - |
| 1788073738 | 18.89° C | 51% | 979.2 hPa | - | - | - | - |
| 1788072841 | 19.44° C | 49% | 979.2 hPa | - | - | - | - |
| 1788071940 | 20° C | 49% | 979.4 hPa | - | - | - | - |
| 1788071040 | 20° C | 50% | 979.5 hPa | - | - | - | - |
| 1788070140 | 21.11° C | 48% | 979.8 hPa | - | - | - | - |
| 1788069240 | 20.56° C | 48% | 979.8 hPa | - | - | - | - |
| 1788068340 | 21.11° C | 48% | 979.9 hPa | - | - | - | - |
| 1788067440 | 21.11° C | 47% | 980.1 hPa | - | - | - | - |
| 1788066540 | 20.56° C | 48% | 980.1 hPa | - | - | - | - |
| 1788065640 | 20.56° C | 48% | 980.2 hPa | - | - | - | - |
| 1788064740 | 20.56° C | 48% | 980.4 hPa | - | - | - | - |
| 1788063839 | 20.56° C | 49% | 980.5 hPa | - | - | - | - |
| 1788062939 | 21.11° C | 47% | 980.6 hPa | - | - | - | - |
| 1788062039 | 21.11° C | 46% | 980.6 hPa | - | - | - | - |
| 1788061139 | 20.56° C | 47% | 980.9 hPa | - | - | - | - |
* Rain since midnight (hover to see other rain measurements)
** Current wind speed in m/s (hover to see current wind gust speed)